• Em Portugal
  • Lista de países
  • Para 7 dias
  • Temperatura da água
  • Mapas de satélite
  • Mapa do tempo
  • Widgets de tempo
  • user-avatar
    Iniciar Sessão

    Previsão horária em Fier

    Hoje, 17 Dezembro, Domingo

    Tempo Temperatura Precipitação Vento Pressão Humidade
    00:00 +12°C° 1,2 mm 1 m/s 755 mmHg 95%
    01:00 +12°C° 0 mm 2 m/s 754 mmHg 96%
    02:00 +10°C° 0,6 mm 2 m/s 755 mmHg 94%
    03:00 +11°C° 0,6 mm 1 m/s 755 mmHg 93%
    04:00 +11°C° 0,6 mm 1 m/s 755 mmHg 91%
    05:00 +11°C° 0,6 mm 1 m/s 755 mmHg 91%
    06:00 +11°C° 0,6 mm 1 m/s 755 mmHg 91%
    07:00 +10°C° 0,6 mm 1 m/s 756 mmHg 90%
    08:00 +10°C° 0,4 mm 2 m/s 756 mmHg 88%
    09:00 +10°C° 0,4 mm 2 m/s 756 mmHg 85%
    10:00 +10°C° 0,4 mm 2 m/s 757 mmHg 83%
    11:00 +11°C° 0,3 mm 3 m/s 757 mmHg 78%
    12:00 +11°C° 0,3 mm 3 m/s 757 mmHg 74%
    13:00 +12°C° 0,3 mm 4 m/s 757 mmHg 69%
    14:00 +11°C° 0,3 mm 3 m/s 757 mmHg 74%
    15:00 +10°C° 0,3 mm 3 m/s 757 mmHg 79%
    16:00 +9°C° 0,3 mm 3 m/s 758 mmHg 83%
    17:00 +9°C° 0,3 mm 3 m/s 758 mmHg 86%
    18:00 +8°C° 0,3 mm 3 m/s 759 mmHg 88%
    19:00 +8°C° 0,3 mm 3 m/s 759 mmHg 90%
    20:00 +7°C° 0,2 mm 3 m/s 759 mmHg 89%
    21:00 +6°C° 0,2 mm 4 m/s 760 mmHg 88%
    22:00 +6°C° 0,2 mm 4 m/s 760 mmHg 86%
    23:00 +6°C° 0,4 mm 4 m/s 761 mmHg 86%

    Amanhã, 18 Dezembro, Segunda-feira

    Tempo Temperatura Precipitação Vento Pressão Humidade
    00:00 +6°C° 0,4 mm 5 m/s 761 mmHg 86%
    01:00 +6°C° 0,4 mm 5 m/s 761 mmHg 85%
    02:00 +6°C° 0,5 mm 5 m/s 761 mmHg 87%
    03:00 +6°C° 0,5 mm 5 m/s 761 mmHg 89%
    04:00 +6°C° 0,5 mm 5 m/s 761 mmHg 91%
    05:00 +6°C° 0,3 mm 5 m/s 761 mmHg 91%
    06:00 +6°C° 0,3 mm 4 m/s 761 mmHg 90%
    07:00 +5°C° 0,3 mm 4 m/s 761 mmHg 90%
    08:00 +6°C° 0,2 mm 4 m/s 761 mmHg 86%
    09:00 +7°C° 0,2 mm 4 m/s 762 mmHg 81%
    10:00 +8°C° 0,2 mm 4 m/s 762 mmHg 77%
    11:00 +8°C° 0,3 mm 4 m/s 761 mmHg 77%
    12:00 +8°C° 0,3 mm 4 m/s 761 mmHg 77%
    13:00 +8°C° 0,3 mm 5 m/s 761 mmHg 77%
    14:00 +7°C° 0,4 mm 5 m/s 761 mmHg 80%
    15:00 +6°C° 0,4 mm 5 m/s 761 mmHg 84%
    16:00 +5°C° 0,4 mm 5 m/s 761 mmHg 87%
    17:00 +5°C° 0,3 mm 4 m/s 761 mmHg 88%
    18:00 +4°C° 0,3 mm 4 m/s 762 mmHg 90%
    19:00 +4°C° 0,3 mm 4 m/s 762 mmHg 91%
    20:00 +3°C° 0,1 mm 4 m/s 763 mmHg 91%
    21:00 +3°C° 0,1 mm 3 m/s 763 mmHg 91%
    22:00 +2°C° 0,1 mm 3 m/s 764 mmHg 91%
    23:00 +2°C° 0 mm 3 m/s 764 mmHg 90%

    Depois de amanhã, 19 Dezembro, Terça-feira

    Tempo Temperatura Precipitação Vento Pressão Humidade
    00:00 +2°C° 0 mm 3 m/s 764 mmHg 89%
    01:00 +1°C° 0 mm 3 m/s 764 mmHg 88%
    02:00 +1°C° 0,1 mm 3 m/s 765 mmHg 87%
    03:00 +1°C° 0,1 mm 3 m/s 765 mmHg 86%
    04:00 +1°C° 0,1 mm 3 m/s 765 mmHg 85%
    05:00 +2°C° 0 mm 2 m/s 766 mmHg 84%
    06:00 +2°C° 0 mm 2 m/s 766 mmHg 83%
    07:00 +2°C° 0 mm 2 m/s 766 mmHg 82%
    08:00 +3°C° 0 mm 2 m/s 767 mmHg 77%
    09:00 +4°C° 0 mm 2 m/s 767 mmHg 71%
    10:00 +5°C° 0 mm 2 m/s 768 mmHg 66%
    11:00 +6°C° 0 mm 2 m/s 768 mmHg 64%
    12:00 +6°C° 0 mm 2 m/s 768 mmHg 61%
    13:00 +5°C° 0 mm 3 m/s 768 mmHg 59%
    14:00 +5°C° 0 mm 3 m/s 768 mmHg 63%
    15:00 +4°C° 0 mm 3 m/s 768 mmHg 68%
    16:00 +4°C° 0 mm 3 m/s 768 mmHg 72%
    17:00 +3°C° 0 mm 3 m/s 768 mmHg 74%
    18:00 +2°C° 0 mm 3 m/s 769 mmHg 76%
    19:00 +2°C° 0 mm 3 m/s 769 mmHg 78%
    20:00 +2°C° 0 mm 3 m/s 769 mmHg 77%
    21:00 +2°C° 0 mm 2 m/s 769 mmHg 77%
    22:00 +2°C° 0 mm 2 m/s 769 mmHg 77%
    23:00 +2°C° 0 mm 2 m/s 769 mmHg 76%

    20 Dezembro, Quarta-feira

    Tempo Temperatura Precipitação Vento Pressão Humidade
    00:00 +2°C° 0 mm 2 m/s 769 mmHg 75%
    01:00 +2°C° 0 mm 2 m/s 769 mmHg 75%
    02:00 +2°C° 0 mm 2 m/s 769 mmHg 74%
    03:00 +2°C° 0 mm 2 m/s 769 mmHg 73%
    04:00 +2°C° 0 mm 2 m/s 769 mmHg 72%
    05:00 +2°C° 0 mm 2 m/s 769 mmHg 72%
    06:00 +2°C° 0 mm 2 m/s 769 mmHg 71%
    07:00 +2°C° 0 mm 2 m/s 770 mmHg 70%
    08:00 +3°C° 0 mm 2 m/s 770 mmHg 65%
    09:00 +4°C° 0 mm 2 m/s 770 mmHg 59%
    10:00 +6°C° 0 mm 2 m/s 770 mmHg 54%
    11:00 +6°C° 0 mm 2 m/s 769 mmHg 51%
    12:00 +7°C° 0 mm 2 m/s 769 mmHg 49%
    13:00 +8°C° 0 mm 2 m/s 769 mmHg 46%
    14:00 +7°C° 0 mm 2 m/s 769 mmHg 51%
    15:00 +6°C° 0 mm 2 m/s 769 mmHg 57%
    16:00 +4°C° 0 mm 3 m/s 769 mmHg 62%
    17:00 +4°C° 0 mm 2 m/s 770 mmHg 65%
    18:00 +4°C° 0 mm 2 m/s 770 mmHg 67%
    19:00 +3°C° 0 mm 2 m/s 770 mmHg 69%
    20:00 +3°C° 0 mm 2 m/s 771 mmHg 69%
    21:00 +3°C° 0 mm 2 m/s 771 mmHg 70%
    22:00 +3°C° 0 mm 2 m/s 772 mmHg 70%
    23:00 +2°C° 0 mm 2 m/s 772 mmHg 70%

    21 Dezembro, Quinta-feira

    Tempo Temperatura Precipitação Vento Pressão Humidade
    00:00 +2°C° 0 mm 2 m/s 772 mmHg 69%
    01:00 +1°C° 0 mm 3 m/s 772 mmHg 69%
    02:00 +1°C° 0 mm 3 m/s 772 mmHg 68%
    03:00 +1°C° 0 mm 3 m/s 772 mmHg 68%
    04:00 +1°C° 0 mm 3 m/s 772 mmHg 67%
    05:00 +1°C° 0 mm 3 m/s 772 mmHg 66%
    06:00 +1°C° 0 mm 3 m/s 772 mmHg 65%
    07:00 +1°C° 0 mm 3 m/s 772 mmHg 65%
    08:00 +2°C° 0 mm 3 m/s 772 mmHg 59%
    09:00 +4°C° 0 mm 3 m/s 772 mmHg 53%
    10:00 +5°C° 0 mm 3 m/s 772 mmHg 47%
    11:00 +7°C° 0 mm 3 m/s 772 mmHg 45%
    12:00 +7°C° 0 mm 3 m/s 771 mmHg 43%
    13:00 +7°C° 0 mm 4 m/s 771 mmHg 41%
    14:00 +6°C° 0 mm 4 m/s 771 mmHg 47%
    15:00 +5°C° 0 mm 4 m/s 771 mmHg 53%
    16:00 +3°C° 0 mm 3 m/s 771 mmHg 59%
    17:00 +3°C° 0 mm 3 m/s 771 mmHg 59%
    18:00 +2°C° 0 mm 3 m/s 771 mmHg 59%
    19:00 +2°C° 0 mm 3 m/s 771 mmHg 59%
    20:00 +2°C° 0 mm 3 m/s 771 mmHg 58%
    21:00 +2°C° 0 mm 3 m/s 771 mmHg 56%
    22:00 +2°C° 0 mm 3 m/s 771 mmHg 55%
    23:00 +3°C° 0 mm 2 m/s 771 mmHg 54%

    22 Dezembro, Sexta-feira

    Tempo Temperatura Precipitação Vento Pressão Humidade
    00:00 +3°C° 0 mm 2 m/s 771 mmHg 52%
    01:00 +3°C° 0 mm 2 m/s 770 mmHg 51%
    02:00 +3°C° 0 mm 2 m/s 770 mmHg 50%
    03:00 +3°C° 0 mm 2 m/s 770 mmHg 49%
    04:00 +4°C° 0 mm 2 m/s 769 mmHg 48%
    05:00 +4°C° 0 mm 2 m/s 769 mmHg 47%
    06:00 +4°C° 0 mm 2 m/s 769 mmHg 46%
    07:00 +4°C° 0 mm 2 m/s 769 mmHg 45%
    08:00 +6°C° 0 mm 2 m/s 769 mmHg 44%
    09:00 +8°C° 0 mm 2 m/s 769 mmHg 43%
    10:00 +10°C° 0 mm 2 m/s 769 mmHg 42%
    11:00 +10°C° 0 mm 2 m/s 768 mmHg 42%
    12:00 +12°C° 0 mm 2 m/s 767 mmHg 41%
    13:00 +13°C° 0 mm 1 m/s 766 mmHg 41%
    14:00 +12°C° 0 mm 1 m/s 766 mmHg 47%
    15:00 +10°C° 0 mm 1 m/s 766 mmHg 53%
    16:00 +9°C° 0 mm 1 m/s 766 mmHg 58%
    17:00 +8°C° 0 mm 1 m/s 765 mmHg 59%
    18:00 +8°C° 0 mm 1 m/s 765 mmHg 60%
    19:00 +7°C° 0 mm 1 m/s 765 mmHg 61%
    20:00 +7°C° 0 mm 1 m/s 765 mmHg 61%
    21:00 +7°C° 0 mm 1 m/s 765 mmHg 60%
    22:00 +7°C° 0 mm 1 m/s 765 mmHg 60%
    23:00 +7°C° 0 mm 1 m/s 764 mmHg 59%
    Mostrar mais